Weather History for KEST - November, 2012

Change the Weather History Date:

Friday, November 9, 2012

  Actual Average Record
Temperature  
Mean Temperature 45 °F 36 °F  
Max Temperature 58 °F 46 °F 71 °F (1999)
Min Temperature 31 °F 27 °F 6 °F (1991)
Degree Days  
Heating Degree Days 20 29  
Month to date heating degree days 216 239  
Since 1 July heating degree days 995 988  
Cooling Degree Days 0 0  
Month to date cooling degree days 0 0  
Year to date cooling degree days 886 593  
Moisture  
Dew Point 37 °F    
Average Humidity 76    
Maximum Humidity 100    
Minimum Humidity 51    
Precipitation  
Precipitation 0.00 in 0.05 in 1.95 in (1977)
Month to date precipitation 0.34 0.49  
Sea Level Pressure  
Sea Level Pressure 29.91 in    
Wind  
Wind Speed 11 mph (ENE)    
Max Wind Speed 22 mph    
Max Gust Speed 26 mph    
Visibility 6 miles    
Events Fog    
T = Trace of Precipitation, MM = Missing Value Source: NWS Daily Summary

Daily Weather History Graph

Daily Weather History Graph

Search for Another Location

Airport or City:

Trip Planner

Search our weather history database for the weather conditions in past years. The results will help you decide how hot, cold, wet, or windy it might be!

Date:

Astronomy

Nov. 09, 2012 Rise Set
Actual Time 7:05 AM CST 4:59 PM CST
Civil Twilight 6:34 AM CST 5:30 PM CST
Nautical Twilight 6:00 AM CST 6:04 PM CST
Astronomical Twilight 5:27 AM CST 6:37 PM CST
Moon 1:57 AM CST (11/9) 2:20 PM CST (11/9)
Length of Visible Light 10h 55m
Length of Day
9h 54m
Waning Crescent, 23% of the Moon is Illuminated
Nov 9
Waning Crescent
Nov 13
New
Nov 20
First Quarter
Nov 28
Full
Dec 6
Last Quarter

Hourly Weather History & Observations

Time (CST) Temp. Windchill Dew Point Humidity Pressure Visibility Wind Dir Wind Speed Gust Speed Precip Events Conditions
12:52 AM 34.0 °F 28.0 °F 32.0 °F 92% 29.94 in 4.0 mi NNE 6.9 mph - N/A   Clear
1:52 AM 33.1 °F 27.7 °F 32.0 °F 96% 29.95 in 4.0 mi North 5.8 mph - N/A   Clear
2:52 AM 32.0 °F 27.5 °F 30.9 °F 96% 29.94 in 4.0 mi North 4.6 mph - N/A   Clear
3:52 AM 30.9 °F 26.2 °F 30.0 °F 96% 29.93 in 4.0 mi NNE 4.6 mph - N/A   Clear
4:52 AM 30.9 °F 25.2 °F 30.0 °F 96% 29.95 in 4.0 mi North 5.8 mph - N/A   Clear
5:52 AM 32.0 °F 24.8 °F 30.0 °F 92% 29.96 in 3.0 mi North 8.1 mph - N/A   Clear
6:37 AM 32.0 °F 24.8 °F 30.2 °F 93% 29.93 in 2.0 mi NNE 8.1 mph - N/A   Scattered Clouds
6:40 AM 30.2 °F 22.6 °F 30.2 °F 100% 29.93 in 1.2 mi NNE 8.1 mph - N/A   Mostly Cloudy
6:43 AM 30.2 °F 22.6 °F 30.2 °F 100% 29.93 in 0.8 mi NNE 8.1 mph - N/A   Mist
6:52 AM 30.9 °F 24.3 °F 30.9 °F 100% 29.97 in 0.5 mi North 6.9 mph - N/A Fog Light Freezing Fog
7:52 AM 32.0 °F 26.4 °F 30.9 °F 96% 29.99 in 0.2 mi North 5.8 mph - 0.00 in Fog Fog
8:52 AM 35.1 °F 27.9 °F 34.0 °F 96% 29.97 in 0.2 mi NNE 9.2 mph - N/A Fog Fog
9:11 AM 35.6 °F 28.0 °F 33.8 °F 93% 29.94 in 1.2 mi NNE 10.4 mph - N/A   Overcast
9:22 AM 37.4 °F 30.3 °F 35.6 °F 93% 29.93 in 2.5 mi NE 10.4 mph - N/A   Mostly Cloudy
9:30 AM 37.4 °F 30.8 °F 37.4 °F 100% 29.93 in 4.0 mi NE 9.2 mph - N/A   Mostly Cloudy
9:41 AM 39.2 °F 33.0 °F 37.4 °F 93% 29.93 in 5.0 mi NE 9.2 mph - N/A   Partly Cloudy
9:52 AM 41.0 °F 35.2 °F 39.0 °F 93% 29.96 in 6.0 mi ENE 9.2 mph - N/A   Partly Cloudy
10:52 AM 46.9 °F - 39.9 °F 77% 29.95 in 8.0 mi East 9.2 mph - N/A   Clear
11:52 AM 53.1 °F - 41.0 °F 64% 29.92 in 10.0 mi East 12.7 mph - N/A   Clear
12:52 PM 57.0 °F - 39.9 °F 53% 29.86 in 10.0 mi ESE 18.4 mph - N/A   Clear
1:52 PM 55.9 °F - 39.9 °F 55% 29.85 in 10.0 mi ESE 17.3 mph - N/A   Clear
2:52 PM 55.0 °F - 41.0 °F 59% 29.84 in 10.0 mi East 13.8 mph - N/A   Clear
3:52 PM 55.0 °F - 41.0 °F 59% 29.85 in 10.0 mi East 13.8 mph - N/A   Mostly Cloudy
4:52 PM 53.1 °F - 42.1 °F 66% 29.85 in 9.0 mi East 13.8 mph - N/A   Overcast
5:52 PM 52.0 °F - 42.1 °F 69% 29.86 in 10.0 mi East 11.5 mph - N/A   Overcast
6:52 PM 52.0 °F - 42.1 °F 69% 29.86 in 10.0 mi ESE 12.7 mph - N/A   Overcast
7:52 PM 51.1 °F - 42.1 °F 71% 29.86 in 9.0 mi East 15.0 mph - N/A   Overcast
8:52 PM 50.0 °F - 42.1 °F 74% 29.85 in 9.0 mi East 16.1 mph - N/A   Overcast
9:52 PM 48.9 °F - 42.1 °F 77% 29.84 in 8.0 mi East 11.5 mph - N/A   Overcast
10:52 PM 48.9 °F - 42.1 °F 77% 29.81 in 8.0 mi East 15.0 mph - N/A   Overcast
11:52 PM 48.9 °F - 42.1 °F 77% 29.78 in 7.0 mi East 16.1 mph - N/A   Overcast